Time,TemperatureF,DewpointF,PressureIn,WindDirection,WindDirectionDegrees,WindSpeedMPH,WindSpeedGustMPH,Humidity,HourlyPrecipIn,Conditions,Clouds,dailyrainin,SoftwareType,DateUTC
2013-05-13 00:00:00,40.0,32.1,29.75,NNE,31,0.0,0.0,73,0.00,,---,0.00,VWS V13.01,2013-05-13 04:00:00,
2013-05-13 00:30:00,39.4,31.8,29.75,NNE,30,0.0,0.0,74,0.00,,---,0.00,VWS V13.01,2013-05-13 04:30:00,
2013-05-13 01:00:00,38.6,31.7,29.76,NNE,30,0.0,0.0,76,0.00,,---,0.00,VWS V13.01,2013-05-13 05:00:00,
2013-05-13 01:30:00,37.4,31.8,29.75,NNE,30,0.0,0.0,80,0.00,,---,0.00,VWS V13.01,2013-05-13 05:30:00,
2013-05-13 02:00:00,36.8,31.5,29.75,NNE,30,0.0,0.0,81,0.00,,---,0.00,VWS V13.01,2013-05-13 06:00:00,
2013-05-13 02:30:00,36.3,31.3,29.75,NNE,30,0.0,0.0,82,0.00,,---,0.00,VWS V13.01,2013-05-13 06:30:00,
2013-05-13 03:00:00,35.6,31.2,29.75,NNE,30,0.0,0.0,84,0.00,,---,0.00,VWS V13.01,2013-05-13 07:00:00,
2013-05-13 03:30:00,35.4,31.4,29.76,NNE,30,0.0,0.0,85,0.00,,---,0.00,VWS V13.01,2013-05-13 07:30:00,
2013-05-13 04:00:00,35.0,31.2,29.76,NNE,30,0.0,0.0,86,0.00,,---,0.00,VWS V13.01,2013-05-13 08:00:00,
2013-05-13 04:30:00,34.3,30.8,29.75,NNE,30,0.0,0.0,87,0.00,,---,0.00,VWS V13.01,2013-05-13 08:30:00,
2013-05-13 05:00:00,33.6,30.1,29.75,NNE,30,0.0,0.0,87,0.00,,---,0.00,VWS V13.01,2013-05-13 09:00:00,
2013-05-13 05:30:00,33.2,30.0,29.77,NNE,30,0.0,0.0,88,0.00,,---,0.00,VWS V13.01,2013-05-13 09:30:00,
2013-05-13 06:00:00,32.8,29.9,29.73,NNE,30,0.0,0.0,89,0.00,,---,0.00,VWS V13.01,2013-05-13 10:00:00,
2013-05-13 06:30:00,32.7,30.1,29.74,NNE,30,0.0,0.0,90,0.00,,---,0.00,VWS V13.01,2013-05-13 10:30:00,
2013-05-13 07:00:00,33.0,30.4,29.74,NNE,29,0.0,0.0,90,0.00,,---,0.00,VWS V13.01,2013-05-13 11:00:00,
2013-05-13 07:30:00,34.4,31.5,29.76,NNE,29,0.0,0.0,89,0.00,,---,0.00,VWS V13.01,2013-05-13 11:30:00,
2013-05-13 08:00:00,36.8,33.6,29.77,NNE,30,0.0,0.0,88,0.00,,---,0.00,VWS V13.01,2013-05-13 12:00:00,
2013-05-13 08:30:00,40.7,34.4,29.78,NNE,29,0.0,0.0,78,0.00,,---,0.00,VWS V13.01,2013-05-13 12:30:00,
2013-05-13 09:00:00,45.2,32.2,29.81,NNE,20,0.0,0.0,60,0.00,,---,0.00,VWS V13.01,2013-05-13 13:00:00,
2013-05-13 09:30:00,47.9,30.2,29.80,NNW,340,0.0,6.0,50,0.00,,---,0.00,VWS V13.01,2013-05-13 13:30:00,
2013-05-13 10:00:00,49.9,30.5,29.81,North,0,0.0,7.0,47,0.00,,---,0.00,VWS V13.01,2013-05-13 14:00:00,
2013-05-13 10:30:00,52.2,29.2,29.79,North,356,2.0,9.0,41,0.00,,---,0.00,VWS V13.01,2013-05-13 14:30:00,
2013-05-13 11:00:00,53.8,29.4,29.78,North,1,0.0,11.0,39,0.00,,---,0.00,VWS V13.01,2013-05-13 15:00:00,
2013-05-13 11:30:00,55.7,31.8,29.79,NNE,31,0.0,7.0,40,0.00,,---,0.00,VWS V13.01,2013-05-13 15:30:00,
2013-05-13 12:00:00,56.0,29.4,29.78,NW,316,0.0,7.0,36,0.00,,---,0.00,VWS V13.01,2013-05-13 16:00:00,
2013-05-13 12:30:00,56.7,29.4,29.78,NNW,335,0.0,9.0,35,0.00,,---,0.00,VWS V13.01,2013-05-13 16:30:00,
2013-05-13 13:00:00,57.5,31.5,29.79,West,280,0.0,4.0,37,0.00,,---,0.00,VWS V13.01,2013-05-13 17:00:00,
2013-05-13 13:30:00,57.7,31.6,29.79,SW,233,0.0,9.0,37,0.00,,---,0.00,VWS V13.01,2013-05-13 17:30:00,
2013-05-13 14:00:00,58.7,30.4,29.78,North,0,0.0,8.0,34,0.00,,---,0.00,VWS V13.01,2013-05-13 18:00:00,
2013-05-13 14:30:00,59.2,32.3,29.77,North,8,0.0,9.0,36,0.00,,---,0.00,VWS V13.01,2013-05-13 18:30:00,
2013-05-13 15:00:00,59.4,33.8,29.79,West,268,0.0,6.0,38,0.00,,---,0.00,VWS V13.01,2013-05-13 19:00:00,
2013-05-13 15:30:00,61.0,33.9,29.77,NNW,347,0.0,2.0,36,0.00,,---,0.00,VWS V13.01,2013-05-13 19:30:00,
2013-05-13 16:00:00,62.4,32.9,29.76,SW,234,0.0,2.0,33,0.00,,---,0.00,VWS V13.01,2013-05-13 20:00:00,
2013-05-13 16:30:00,62.1,32.7,29.75,NNE,33,0.0,1.0,33,0.00,,---,0.00,VWS V13.01,2013-05-13 20:30:00,
2013-05-13 17:00:00,61.8,31.6,29.74,North,6,0.0,9.0,32,0.00,,---,0.00,VWS V13.01,2013-05-13 21:00:00,
2013-05-13 17:30:00,61.5,29.8,29.74,West,278,0.0,1.0,30,0.00,,---,0.00,VWS V13.01,2013-05-13 21:30:00,
2013-05-13 18:00:00,61.5,29.8,29.73,North,8,0.0,1.0,30,0.00,,---,0.00,VWS V13.01,2013-05-13 22:00:00,
2013-05-13 18:30:00,60.1,28.6,29.73,SSW,194,0.0,1.0,30,0.00,,---,0.00,VWS V13.01,2013-05-13 22:30:00,
2013-05-13 19:00:00,60.0,29.3,29.74,NNE,20,0.0,1.0,31,0.00,,---,0.00,VWS V13.01,2013-05-13 23:00:00,
2013-05-13 19:30:00,54.2,27.9,29.74,ESE,113,0.0,1.0,36,0.00,,---,0.00,VWS V13.01,2013-05-13 23:30:00,
2013-05-13 20:00:00,52.4,30.0,29.73,SSE,157,0.0,0.0,42,0.00,,---,0.00,VWS V13.01,2013-05-14 00:00:00,
2013-05-13 20:30:00,51.1,31.6,29.73,SSE,157,0.0,0.0,47,0.00,,---,0.00,VWS V13.01,2013-05-14 00:30:00,
2013-05-13 21:00:00,50.2,32.8,29.73,SSE,157,0.0,0.0,51,0.00,,---,0.00,VWS V13.01,2013-05-14 01:00:00,
2013-05-13 21:30:00,49.3,32.9,29.71,SSE,157,0.0,0.0,53,0.00,,---,0.00,VWS V13.01,2013-05-14 01:30:00,
2013-05-13 22:00:00,49.0,34.5,29.72,SSE,157,0.0,0.0,57,0.00,,---,0.00,VWS V13.01,2013-05-14 02:00:00,
2013-05-13 22:30:00,48.9,33.5,29.73,SSE,157,0.0,0.0,55,0.00,,---,0.00,VWS V13.01,2013-05-14 02:30:00,
2013-05-13 23:00:00,48.8,33.8,29.70,SSE,157,0.0,0.0,56,0.00,,---,0.00,VWS V13.01,2013-05-14 03:00:00,
2013-05-13 23:30:00,48.5,33.5,29.70,SSE,164,0.0,0.0,56,0.00,,---,0.00,VWS V13.01,2013-05-14 03:30:00,